Theta_e
331 330 329 328 328 327 330 332 332 334 337 340 341 343 340 343 347 346 346 350 356 363 367 372 364 357 356 354 352 355 360 366 369 369 370 370 370 369 369 366 366 363 358 355
333 331 330 329 329 328 328 328 330 331 333 336 338 338 340 345 345 348 350 346 347 361 366 368 369 364 360 360 358 358 362 367 368 369 369 369 368 368 366 365 364 359 354 351
337 332 331 330 330 330 330 330 329 331 334 334 335 339 342 342 344 345 344 345 349 362 367 371 364 361 360 360 363 363 366 367 368 369 369 368 366 364 362 363 360 358 353 352
335 337 337 332 331 330 331 331 333 333 334 337 338 338 336 338 342 344 343 344 351 355 367 365 361 361 360 361 363 366 367 367 368 369 368 368 366 366 364 361 356 354 352 349
338 337 335 333 333 332 334 335 334 333 336 332 334 334 338 339 343 345 347 350 354 346 363 364 362 362 362 363 365 366 367 368 368 369 369 367 365 362 360 356 353 352 349 347
335 336 338 337 334 331 331 338 338 335 338 333 336 336 337 344 342 343 348 348 352 342 355 366 365 365 365 366 367 368 368 371 368 366 363 359 357 358 356 354 351 349 346 344
335 337 334 333 333 333 338 336 333 333 337 337 339 342 349 347 351 360 356 354 346 353 363 366 366 365 368 369 370 369 367 363 360 359 356 354 354 356 354 350 346 345 342 341
334 336 337 332 332 336 347 346 338 338 337 346 345 347 346 354 359 356 356 355 354 363 365 365 365 368 369 367 367 364 362 360 357 356 354 355 354 350 347 346 345 342 342 341
332 331 338 332 336 337 338 338 345 353 346 346 343 349 357 361 360 361 360 359 362 368 369 368 367 367 367 363 361 360 358 360 359 357 356 352 349 348 348 347 344 343 341 339
332 333 333 334 333 334 334 337 343 344 345 345 344 350 356 359 360 363 365 366 364 365 364 361 359 359 359 359 360 360 360 357 354 354 352 351 349 348 347 345 344 342 341 339
336 336 332 335 332 333 334 334 334 341 343 344 343 352 355 361 364 364 363 359 358 358 358 357 356 355 356 355 356 355 355 354 352 352 352 350 346 345 345 343 342 340 339 337
335 337 340 341 337 333 334 333 334 339 345 344 346 356 359 361 360 359 356 353 352 352 353 354 355 355 356 356 355 354 353 352 351 351 346 343 338 333 335 335 336 336 336 336
330 328 331 335 339 340 342 342 334 340 345 347 355 357 355 352 348 342 343 343 342 341 341 342 344 346 349 349 349 348 346 349 348 348 346 341 334 331 324 323 327 330 330 329
324 326 332 335 337 339 343 345 339 343 349 351 348 344 343 342 340 341 341 339 339 339 340 340 339 339 339 339 339 339 340 340 342 342 343 341 341 336 329 328 319 314 317 319
322 326 330 332 336 339 339 343 345 346 345 344 341 342 339 342 344 342 338 338 338 338 338 337 337 337 335 336 335 335 334 334 336 338 339 339 338 336 333 332 322 314 309 308
323 325 328 331 336 342 340 343 344 344 342 341 341 340 341 339 337 336 336 336 337 337 336 336 337 336 337 336 336 336 336 333 335 336 336 337 336 335 334 330 321 316 313 310
323 325 327 330 335 337 337 343 343 341 340 340 341 338 337 337 336 336 334 336 337 336 335 337 337 336 335 334 334 333 331 330 332 333 331 332 332 332 333 329 326 321 318 313
323 324 325 328 334 337 337 340 340 340 339 338 336 336 336 336 338 337 335 333 337 337 336 335 334 333 333 333 333 331 332 329 330 331 332 333 331 332 333 331 326 323 321 316
324 325 329 332 333 335 339 340 336 337 336 334 334 336 335 335 335 335 335 336 337 339 336 334 332 332 332 331 329 330 328 331 329 330 330 330 330 330 331 331 326 323 318 315
327 329 332 336 335 336 337 334 334 334 334 336 336 336 336 334 332 333 334 336 335 336 334 328 331 332 332 327 323 328 327 327 328 328 329 330 330 331 330 329 325 320 318 317
331 334 333 334 333 331 333 333 333 335 334 334 336 337 336 334 333 333 338 337 334 331 330 330 332 331 332 329 323 325 327 328 328 327 328 329 328 329 328 328 324 322 320 319
328 328 330 330 330 331 330 329 330 331 331 333 333 335 334 334 333 333 335 337 334 331 328 328 328 327 327 325 326 328 328 328 328 327 328 329 329 328 328 326 324 322 319 318
327 326 327 328 327 327 329 330 330 330 331 331 332 332 332 331 330 332 336 334 331 330 329 327 326 324 324 324 328 327 327 326 326 328 328 329 327 327 326 325 324 321 319 319
324 324 325 326 326 326 327 328 328 328 330 330 331 330 330 330 330 331 329 330 330 329 328 323 323 321 319 326 326 326 325 325 325 326 326 327 327 327 325 324 323 322 321 316
320 321 321 323 324 324 325 326 327 328 328 328 328 327 327 327 329 329 329 326 326 326 324 320 318 320 323 325 326 325 325 325 324 324 323 324 324 324 323 323 322 321 316 314
321 322 321 320 320 323 324 324 324 324 324 325 324 324 325 326 327 328 328 328 326 324 323 320 322 321 322 321 322 323 321 321 322 322 322 321 321 322 322 321 320 318 315 315
321 321 323 318 318 319 318 320 322 323 322 322 322 322 323 323 325 326 325 324 324 322 321 321 320 320 320 320 319 320 318 316 316 318 319 320 320 319 319 318 318 318 317 316
Wind_Speed
27 28 25 24 24 26 26 22 21 18 22 16 14 8 11 12 10 7 6 6 7 6 4 5 11 21 26 29 33 33 33 31 30 29 26 25 24 24 22 21 19 20 21 20
24 25 28 27 23 27 27 26 24 23 22 18 17 16 13 9 10 8 5 6 4 8 7 4 5 10 17 22 27 30 30 28 27 25 24 23 22 22 21 20 20 21 22 22
19 22 23 23 26 23 24 24 23 22 19 18 18 11 7 6 9 12 11 8 7 10 10 9 12 13 12 14 18 25 24 24 23 22 21 21 23 23 22 22 23 23 24 20
14 15 25 17 22 25 24 18 21 18 18 14 10 12 14 9 5 5 5 3 4 2 10 16 17 16 16 18 20 21 21 22 21 21 19 19 18 17 16 19 17 13 12 12
13 18 13 23 16 22 23 23 18 15 13 13 12 14 15 7 5 3 4 3 2 5 11 19 19 19 18 18 19 20 20 18 18 19 17 15 14 13 12 13 12 13 15 8
14 21 27 14 20 6 6 15 15 16 11 13 11 12 9 3 6 7 5 5 5 5 7 18 16 18 17 16 17 16 17 19 18 16 16 15 13 14 12 11 12 8 9 12
13 15 16 12 19 16 16 6 6 10 14 15 13 8 3 7 2 7 5 5 7 9 16 18 19 19 16 17 17 18 22 20 18 18 17 18 19 19 22 25 21 20 21 19
12 16 17 12 15 12 8 9 6 7 5 4 10 7 11 6 8 5 5 6 8 13 15 17 18 20 18 17 21 24 24 21 20 19 21 18 27 29 22 20 19 16 13 16
12 12 6 10 8 10 11 5 7 10 9 7 6 6 11 10 8 8 8 8 16 18 16 15 18 20 19 21 25 25 24 22 22 20 18 21 19 16 16 11 12 13 16 15
20 17 17 13 15 15 13 13 5 8 11 9 10 9 10 8 8 8 10 10 17 17 16 18 24 24 23 22 22 22 20 22 19 22 22 18 16 17 16 18 14 15 14 15
17 13 22 16 22 20 17 15 15 6 8 9 7 10 9 9 10 10 11 16 17 19 17 18 20 19 20 22 21 19 18 20 19 22 21 19 16 13 9 11 13 16 17 17
3 13 14 11 12 16 20 18 18 9 9 5 4 10 12 12 12 12 12 18 17 19 18 18 18 17 18 18 20 21 19 18 17 16 14 17 15 15 13 10 10 6 11 14
11 17 17 16 19 18 15 18 18 8 10 7 11 12 14 12 13 19 19 20 18 17 17 17 17 16 15 14 15 12 12 17 14 12 12 10 12 14 17 12 11 13 10 10
19 20 18 14 17 21 22 22 7 6 11 12 13 16 16 14 18 18 17 20 22 21 20 18 17 15 13 12 10 10 10 10 9 9 6 10 12 14 16 15 15 14 14 15
18 16 16 19 18 21 19 13 11 14 14 15 17 15 17 14 14 16 22 23 21 20 19 17 15 13 12 11 11 10 9 9 10 12 12 13 12 13 12 15 18 17 19 19
19 17 16 17 19 23 22 9 13 15 15 15 14 16 18 21 20 20 20 20 19 14 17 16 15 12 11 11 12 11 6 7 5 12 15 13 11 10 15 18 19 16 16 15
18 15 16 17 18 15 26 12 15 15 14 14 14 21 21 20 19 18 18 16 19 18 16 15 15 13 10 8 8 12 7 6 6 7 9 10 9 7 13 18 16 15 17 18
16 16 17 20 18 17 22 13 14 16 14 17 19 19 18 15 12 15 19 18 18 18 16 15 12 10 7 4 3 3 14 10 10 8 17 16 13 14 15 16 17 17 20 22
15 17 18 17 14 17 14 16 15 19 21 19 17 14 16 18 17 16 19 17 15 16 16 12 11 8 6 3 5 6 5 15 10 10 13 13 17 16 12 16 18 19 22 21
15 18 17 8 20 12 7 16 23 18 19 18 17 15 13 14 14 15 14 12 16 17 19 15 10 8 4 3 6 8 6 5 4 6 9 13 17 17 20 16 18 24 21 18
12 11 15 14 12 19 19 23 19 12 16 16 13 12 13 15 14 14 14 11 18 21 17 14 8 9 8 6 5 5 5 6 9 14 7 10 9 12 10 13 24 22 22 18
9 10 16 15 14 13 21 21 14 12 9 9 11 14 13 11 12 10 7 18 17 18 14 11 8 8 8 4 4 4 7 8 5 5 5 7 6 15 17 13 16 17 18 22
12 15 18 17 13 15 21 16 17 15 11 6 8 9 8 10 10 10 8 14 14 9 8 13 11 7 4 3 1 4 5 3 3 9 9 7 9 15 18 20 16 16 18 18
18 25 21 24 25 16 8 17 13 10 11 11 9 9 6 8 9 12 16 13 15 11 9 8 6 5 8 6 5 8 7 7 4 6 6 9 8 9 16 18 18 16 15 18
17 19 20 17 9 5 12 11 11 11 12 9 7 7 11 12 14 11 12 12 13 9 7 6 7 10 8 9 13 14 12 10 8 9 6 11 15 16 16 18 17 16 18 21
7 6 11 14 11 14 12 9 7 8 8 11 11 9 10 9 11 8 7 8 8 5 7 8 9 8 4 3 13 17 11 11 10 12 12 12 13 15 14 14 14 14 17 18
7 8 8 7 11 9 11 12 11 9 9 11 11 7 5 8 6 6 10 12 10 9 8 10 8 6 2 6 5 14 8 7 4 11 11 13 19 16 15 17 20 19 18 15
Wind_Direction
227 250 239 203 210 221 236 235 234 237 245 252 261 245 197 197 174 211 192 186 167 182 242 278 175 185 191 192 194 194 195 195 200 205 210 211 208 211 212 212 213 204 201 212
236 233 247 257 228 213 224 235 246 244 252 253 229 256 246 178 182 189 211 224 201 165 176 205 152 169 184 183 189 190 188 189 192 198 202 209 207 205 202 202 201 196 199 205
234 232 247 248 244 230 214 226 237 241 246 253 261 267 270 244 228 196 205 215 218 186 170 168 169 176 180 178 171 181 178 180 184 190 194 200 204 203 200 194 191 192 193 200
232 226 235 252 240 248 255 239 217 237 245 239 247 275 273 265 237 286 234 243 300 126 165 173 175 176 184 179 173 167 170 175 179 184 189 182 179 182 180 178 178 176 187 195
235 227 247 248 247 235 237 246 255 226 231 244 242 254 255 276 298 281 265 277 130 32 180 168 175 175 179 175 172 169 170 171 170 168 161 168 177 171 162 157 160 174 168 183
215 228 225 220 223 136 336 241 237 251 248 247 240 248 257 271 281 275 265 258 206 195 166 150 161 163 167 163 162 167 169 148 144 152 166 170 167 163 163 156 151 144 153 150
224 227 244 248 248 259 244 257 250 247 235 238 245 258 284 217 195 50 20 114 142 152 130 142 148 155 157 155 160 161 134 133 148 159 158 158 158 167 160 147 148 163 177 169
230 240 240 249 267 268 356 354 319 282 271 359 244 272 225 124 104 122 117 104 135 106 116 130 146 150 143 146 150 134 131 144 156 157 157 171 156 155 160 167 159 162 173 173
236 233 290 308 327 320 305 287 352 7 10 342 351 59 86 112 132 125 125 135 110 107 109 112 126 140 125 125 122 127 141 152 147 144 139 151 147 137 147 158 153 173 192 184
240 254 260 280 283 289 298 317 359 334 333 327 302 158 131 127 131 122 108 110 119 119 104 92 99 107 109 114 124 127 125 127 141 135 136 144 152 156 163 175 178 190 196 197
249 246 251 251 248 275 286 290 300 273 297 295 278 127 129 121 110 106 109 109 109 107 108 103 105 109 113 118 127 135 141 141 141 147 153 153 144 157 169 182 199 205 207 198
273 2 339 300 279 271 261 262 271 292 290 280 141 125 124 117 110 110 105 107 104 105 113 118 121 127 135 144 146 145 148 152 158 155 156 157 148 134 144 167 172 145 165 183
318 331 322 316 321 299 294 288 248 248 258 162 126 120 122 120 122 116 116 116 120 121 116 111 111 110 120 131 143 158 140 143 153 158 160 149 144 141 113 110 121 127 142 152
296 310 312 320 316 314 308 290 162 188 127 118 120 124 127 118 119 123 128 124 123 124 126 126 119 113 114 114 109 96 108 130 141 152 156 160 179 172 150 144 117 106 124 134
270 276 280 302 302 298 295 272 150 138 140 133 130 130 128 140 132 128 125 127 127 126 122 121 117 116 124 125 125 134 138 158 168 173 171 173 171 164 175 150 132 122 128 134
289 283 290 292 294 295 282 217 170 152 138 140 139 143 142 124 118 120 128 133 135 132 131 131 129 138 142 139 154 148 154 137 128 144 166 169 170 132 144 132 127 140 152 148
285 287 284 289 291 307 307 207 146 141 151 150 145 129 128 132 135 133 137 129 122 130 137 136 137 145 142 156 190 154 144 162 144 161 170 164 166 160 140 157 157 156 158 156
270 274 286 278 290 289 293 168 139 146 144 134 128 136 139 142 137 144 133 143 143 143 131 124 125 127 135 142 251 207 163 161 190 218 167 174 170 163 161 168 159 169 154 163
269 284 278 287 290 278 281 141 129 123 124 131 140 150 151 137 148 145 146 150 150 129 122 125 139 131 125 166 200 256 205 169 165 121 158 144 181 170 179 164 165 152 141 155
279 275 285 300 122 131 118 95 108 121 138 144 126 124 129 132 139 141 150 153 180 149 143 149 151 138 151 202 228 280 181 200 175 130 119 112 113 142 163 162 159 145 146 161
251 169 124 88 72 83 82 81 81 81 103 127 137 136 132 137 136 142 141 130 120 132 142 160 177 160 180 163 225 256 241 115 83 77 88 135 129 147 156 159 151 158 159 164
107 82 90 95 85 72 69 78 89 93 94 123 137 135 130 137 142 168 85 144 149 148 157 173 158 129 112 143 196 104 84 89 101 110 120 109 93 139 161 131 146 144 141 149
74 77 69 69 69 60 62 74 75 70 58 85 106 116 151 159 169 179 139 133 148 162 121 140 137 131 171 164 123 109 103 112 140 85 109 132 172 147 148 147 156 153 151 154
58 58 52 66 78 88 92 88 113 118 94 81 68 68 75 145 122 92 94 125 147 144 130 135 145 168 163 175 189 147 138 148 161 137 167 166 169 145 144 141 146 154 154 160
73 82 69 60 58 38 60 91 100 114 117 140 126 110 89 67 92 94 99 119 127 128 137 162 173 169 190 239 199 152 157 157 158 163 152 148 151 157 165 162 162 164 158 176
125 130 151 154 183 151 158 179 111 168 180 139 112 96 98 105 97 108 124 152 152 148 154 166 169 173 250 199 152 151 139 134 165 193 162 152 150 151 164 165 157 162 175 195
127 139 148 123 93 118 142 157 172 157 118 115 100 101 90 101 102 143 142 155 162 163 155 168 178 202 204 193 138 154 155 151 118 151 173 174 169 172 172 170 177 182 198 177